Location: Beaver Brook Station
(42.3793°N, 71.2203°W)
Time: 01:23:09
(UTC+00:00)

Cosmos 1892 - Pass Details

Date: 29 October 2020
Orbit: 504 x 523 km, 82.5° (Epoch: 25 November)

Event Time Altitude Azimuth Distance (km) Brightness Sun altitude
Rises 23:15:32 0° 347° (NNW) 2,664 6.5 -17.9°
Reaches altitude 10° 23:17:42 10° 343° (NNW) 1,771 5.6 -18.3°
Maximum altitude 23:21:30 54° 266° (W) 646 3.5 -19.0°
Drops below altitude 10° 23:25:16 10° 189° (S) 1,756 5.5 -19.7°
Sets 23:27:25 0° 184° (S) 2,638 6.4 -20.1°
